User: anonymous   Login
Location: Vancouver
(49.2500°N, 123.1330°W)
Time: 01:39:42
(UTC-07:00)
Language:

ISS - Orbit

View from above orbital plane
View from above orbital plane
View from above satellite
View from above satellite

Ground track
Ground track

The orbit data is extracted from the following two-line orbital elements,

1 25544U 98067A   15209.21765231  .00233754  00000-0  33367-2 0  9992
2 25544 051.6374 239.1467 0001786 344.7146 133.0402 15.54925687954420
Epoch (UTC): 28 July 2015 05:13:25
Eccentricity: 0.0001786
inclination: 51.6374°
perigee height: 401 km
apogee height: 403 km
right ascension of ascending node: 239.1467°
argument of perigee: 344.7146°
revolutions per day: 15.54925687
mean anomaly at epoch: 133.0402°
orbit number at epoch: 95442

The dashed part of the orbit path shows where the satellite is in the earth's shadow,  

DLR